{"data":{"norad_id":53716,"intl_designator":"2022-107S","name":"STARLINK-4699","alt_names":[],"object_type":"PAYLOAD","status":"ACTIVE","operator":null,"country":"US","launch_date":"2022-09-05","launch_site_code":"AFETR","launch_vehicle":null,"mission":null,"orbit_class":"UNKNOWN","rcs_meters":null,"size_class":null,"mass_kg":null,"dimensions":null,"purposes":["comms"],"wikipedia_slug":null,"has_3d_model":false,"image_url":null,"decayed_at":null,"tle_current":{"epoch":"2026-09-20T22:33:00.499968Z","epoch_age_seconds":44430,"freshness":"FRESH","line1":"1 53716U 22107S   26263.93958912 -.00000301  00000+0  22137-5 0  9993","line2":"2 53716  53.1596  83.3364 0001193  89.4162 270.6977 15.34385480224078","mean_motion":15.3438548,"eccentricity":0.0001193,"inclination_deg":53.1596,"raan_deg":83.3364,"arg_perigee_deg":89.4162,"mean_anomaly_deg":270.6977,"bstar":2.2137e-6,"rev_number":22407,"period_min":93.84864616941,"perigee_km":461.93027965812,"apogee_km":463.56251443665,"semimajor_km":6840.8833970474,"source":"CELESTRAK","updated_at":"2026-09-21T09:00:32.984507Z"}}}